KSANKTUS

Guest
Details From KSAN - San Diego Intl
To KTUS - Tucson Intl
Flight Number -
Tags Generated
Created
Modified
Stats Distance 319 nm / 590 km
Max Altitude 0 ft / 0 m
Waypoints 3
Social Downloads 1
Likes 0
Share VATSIM

Download

Looking for another format? Having issues loading an existing format? Contact us
Advertisement - Login to hide

Notes

Generated

Route

KSAN RYAN KTUS

ID Type Via Altitude Latitude Longitude Leg Dist Tot Dist Heading (true) Name
O KSAN APT - 0 ft / 0 m 32.73712˚ -117.20435˚ - 0 nm - -
RYAN FIX - 0 ft / 0 m 32.13839˚ -111.16153˚ 308 nm 308 nm 95° / 98° -
O KTUS APT - 0 ft / 0 m 32.11717˚ -110.95904˚ 10 nm 318 nm 97° / 97° -

Altitude Profile

Advertisement - Login to hide

Weather

Temperature
Clouds and Precipitation
Forecast for 2017-03-31 00:00 UTC. Updated an hour ago
Winds

KSAN

Details ICAO KSAN (SAN)
Name San Diego Intl
Region United States
Timezone America/Los_Angeles (UTC-7.0)
Stats Elevation 17 ft / 5 m (AMSL)
Location 32.733556° -117.189658°
Runways 1
Magnetic Variation 11.586° E

METAR

KSAN 302151Z 19010KT 10SM BKN013 18/12 A2991

Decode

TAF

TAF AMD KSAN 302037Z 3021/3124 22012G18KT P6SM SCT006 BKN012 FM310000 26012G22KT P6SM BKN015 FM310300 28009KT P6SM BKN025 FM310900 31009KT P6SM SCT025

Decode

Departure Runways

ID Width Length Bearing (true) Bearing (mag) Surface Threshold Offset Overrun Length
09 200 ft / 61 m 9,387 ft / 2,861 m 106.07° 94.48° Asphalt 699 ft / 213 m 269 ft / 82 m
27 200 ft / 61 m 9,387 ft / 2,861 m 286.08° 274.49° Asphalt 1,811 ft / 552 m 0 ft / 0 m

KTUS

Details ICAO KTUS (TUS)
Name Tucson Intl
Region United States
Timezone America/Phoenix (UTC-7.0)
Stats Elevation 2,643 ft / 806 m (AMSL)
Location 32.116858° -110.942155°
Runways 3
Magnetic Variation 9.853° E

METAR

KTUS 302153Z 25017G23KT 10SM CLR 30/M10 A2981

Decode

TAF

TAF KTUS 301738Z 3018/3118 19008KT P6SM SKC FM302000 24013G22KT P6SM SKC TEMPO 3022/3101 23018G30KT FM310200 20016G25KT P6SM FEW200 FM310900 27011KT P6SM SCT200

Decode

Destination Runways

ID Width Length Bearing (true) Bearing (mag) Surface Threshold Offset Overrun Length
03 150 ft / 46 m 7,004 ft / 2,135 m 44.90° 35.05° Asphalt 841 ft / 256 m 0 ft / 0 m
11L 150 ft / 46 m 11,000 ft / 3,353 m 135.16° 125.31° Asphalt 0 ft / 0 m 3,257 ft / 993 m
11R 75 ft / 23 m 8,412 ft / 2,564 m 135.16° 125.31° Asphalt 1,410 ft / 430 m 0 ft / 0 m
21 150 ft / 46 m 7,004 ft / 2,135 m 224.91° 215.06° Asphalt 0 ft / 0 m 0 ft / 0 m
29L 75 ft / 23 m 8,412 ft / 2,564 m 315.17° 305.32° Asphalt 0 ft / 0 m 0 ft / 0 m
29R 150 ft / 46 m 11,000 ft / 3,353 m 315.17° 305.32° Asphalt 0 ft / 0 m 1,000 ft / 305 m

Approach Navaids

Runway Type Ident Frequency Range Bearing (true) Bearing (mag) Slope Elevation
11L Localiser ITUS 111.70 MHz 35 nm / 65 km 135.18° 125.32° - 2,660 ft / 811 m (AMSL)
11L Glidescope ITUS 111.70 MHz 10 nm / 19 km 135.17° 125.31° 3.00° 2,600 ft / 792 m (AMSL)
11L DME ITUS 111.70 MHz 25 nm / 46 km - - - 2,660 ft / 811 m (AMSL)

Popular Alternatives